Provincetown, MA

5:11 AM EDT on June 27, 2017 (GMT -0400)
Provincetown Municipal

Weather History for KPVC - February, 2012

Change the Weather History Date:

Wednesday, February 1, 2012

  Actual Average Record
Temperature  
Mean Temperature 41 °F -  
Max Temperature 50 °F 35 °F 52 °F (2016)
Min Temperature 32 °F 25 °F 10 °F (1953)
Degree Days  
Heating Degree Days 24    
Moisture  
Dew Point 37 °F    
Average Humidity 79    
Maximum Humidity 87    
Minimum Humidity 62    
Precipitation  
Precipitation 0.02 in - - ()
Sea Level Pressure  
Sea Level Pressure 29.88 in    
Wind  
Wind Speed 7 mph (SW)    
Max Wind Speed 22 mph    
Max Gust Speed 25 mph    
Visibility 9 miles    
Events      
Averages and records for this station are not official NWS values.
T = Trace of Precipitation, MM = Missing Value Source: NWS Daily Summary

Daily Weather History Graph

Daily Weather History Graph

Search for Another Location

Airport or City:

Trip Planner

Search our weather history database for the weather conditions in past years. The results will help you decide how hot, cold, wet, or windy it might be!

Date:

Astronomy

Feb. 01, 2012 Rise Set
Actual Time 6:54 AM EST 4:54 PM EST
Civil Twilight 6:24 AM EST 5:24 PM EST
Nautical Twilight 5:51 AM EST 5:58 PM EST
Astronomical Twilight 5:18 AM EST 6:30 PM EST
Moon 11:19 AM EST (2/1) 1:38 AM EST (2/1)
Length of Visible Light 10h 59m
Length of Day
10h 00m
Waxing Gibbous, 64% of the Moon is Illuminated
Feb 1
Waxing Gibbous
Feb 7
Full
Feb 14
Last Quarter
Feb 21
New
Feb 29
First Quarter

Hourly Weather History & Observations

Time (EST) Temp. Windchill Dew Point Humidity Pressure Visibility Wind Dir Wind Speed Gust Speed Precip Events Conditions
12:35 AM 33.8 °F - 28.4 °F 81% 30.02 in 4.0 mi Calm Calm - N/A   Clear
1:15 AM 32.0 °F - 26.6 °F 80% 30.02 in 3.0 mi Calm Calm - N/A   Partly Cloudy
1:35 AM 32.0 °F - 26.6 °F 80% 30.02 in 2.0 mi Calm Calm - N/A   Overcast
1:55 AM 33.8 °F - 28.4 °F 81% 30.01 in 3.0 mi Calm Calm - N/A   Overcast
2:15 AM 33.8 °F - 28.4 °F 81% 29.99 in 1.0 mi Calm Calm - N/A   Overcast
3:15 AM 35.6 °F - 32.0 °F 87% 29.97 in 7.0 mi Calm Calm - N/A   Overcast
3:35 AM 35.6 °F - 32.0 °F 87% 29.96 in 6.0 mi Calm Calm - N/A   Overcast
3:55 AM 35.6 °F 32.8 °F 32.0 °F 87% 29.96 in 5.0 mi SSE 3.5 mph - N/A   Overcast
4:15 AM 35.6 °F - 32.0 °F 87% 29.95 in 9.0 mi Calm Calm - N/A   Overcast
4:35 AM 37.4 °F 34.9 °F 33.8 °F 87% 29.94 in 10.0 mi South 3.5 mph - N/A   Overcast
5:35 AM 39.2 °F 35.0 °F 35.6 °F 87% 29.91 in 10.0 mi South 5.8 mph - N/A   Clear
5:55 AM 41.0 °F 36.4 °F 37.4 °F 87% 29.92 in 10.0 mi South 6.9 mph - N/A   Scattered Clouds
7:35 AM 44.6 °F 39.7 °F 37.4 °F 76% 29.88 in 10.0 mi South 9.2 mph - N/A   Overcast
7:55 AM 44.6 °F 39.2 °F 37.4 °F 76% 29.88 in 10.0 mi SSW 10.4 mph - N/A   Overcast
8:15 AM 44.6 °F 38.4 °F 37.4 °F 76% 29.89 in 10.0 mi SSW 12.7 mph - N/A   Overcast
8:35 AM 44.6 °F 38.4 °F 37.4 °F 76% 29.90 in 10.0 mi SW 12.7 mph - N/A   Overcast
8:55 AM 46.4 °F 39.8 °F 37.4 °F 71% 29.90 in 10.0 mi SW 16.1 mph 23.0 mph N/A   Overcast
9:15 AM 46.4 °F 40.1 °F 39.2 °F 76% 29.90 in 9.0 mi SSW 15.0 mph 21.9 mph N/A   Overcast
9:35 AM 44.6 °F 38.4 °F 39.2 °F 81% 29.88 in 10.0 mi SSW 12.7 mph - 0.01 in   Overcast
9:55 AM 44.6 °F 37.8 °F 39.2 °F 81% 29.87 in 10.0 mi SSW 15.0 mph - 0.02 in   Overcast
10:15 AM 44.6 °F 38.4 °F 39.2 °F 81% 29.86 in 10.0 mi SSW 12.7 mph - N/A   Overcast
10:55 AM 46.4 °F 39.8 °F 41.0 °F 81% 29.84 in 10.0 mi SSW 16.1 mph 20.7 mph N/A   Overcast
11:15 AM 46.4 °F 40.1 °F 42.8 °F 87% 29.83 in 10.0 mi SSW 15.0 mph 20.7 mph N/A   Overcast
11:35 AM 48.2 °F - 42.8 °F 82% 29.82 in 10.0 mi SSW 15.0 mph 19.6 mph N/A   Scattered Clouds
11:55 AM 48.2 °F - 42.8 °F 82% 29.82 in 10.0 mi SW 17.3 mph 23.0 mph N/A   Clear
12:15 PM 48.2 °F - 42.8 °F 82% 29.81 in 10.0 mi SW 21.9 mph 25.3 mph N/A   Clear
12:35 PM 48.2 °F - 42.8 °F 82% 29.80 in 10.0 mi SW 16.1 mph - N/A   Mostly Cloudy
12:55 PM 48.2 °F - 42.8 °F 82% 29.79 in 10.0 mi SSW 13.8 mph - N/A   Overcast
1:15 PM 48.2 °F - 42.8 °F 82% 29.79 in 10.0 mi SSW 13.8 mph 19.6 mph N/A   Overcast
1:55 PM 48.2 °F - 41.0 °F 76% 29.78 in 10.0 mi SSW 12.7 mph 18.4 mph N/A   Overcast
2:15 PM 48.2 °F - 42.8 °F 82% 29.79 in 10.0 mi SW 13.8 mph - N/A   Overcast
2:35 PM 48.2 °F - 42.8 °F 82% 29.78 in 10.0 mi SSW 11.5 mph - N/A   Mostly Cloudy
2:55 PM 48.2 °F - 42.8 °F 82% 29.79 in 10.0 mi SSW 12.7 mph - N/A   Partly Cloudy
3:15 PM 50.0 °F - 42.8 °F 76% 29.79 in 10.0 mi SW 11.5 mph - N/A   Clear
3:55 PM 48.2 °F - 41.0 °F 76% 29.80 in 10.0 mi WSW 9.2 mph - N/A   Clear
4:15 PM 48.2 °F - 39.2 °F 71% 29.80 in 10.0 mi SW 10.4 mph - N/A   Partly Cloudy
4:35 PM 46.4 °F 41.5 °F 39.2 °F 76% 29.81 in 10.0 mi SW 10.4 mph - N/A   Clear
5:15 PM 46.4 °F 41.1 °F 39.2 °F 76% 29.82 in 10.0 mi SSW 11.5 mph - N/A   Clear
5:35 PM 44.6 °F 39.7 °F 39.2 °F 81% 29.82 in 10.0 mi SSW 9.2 mph - N/A   Clear
5:55 PM 44.6 °F 38.8 °F 39.2 °F 81% 29.83 in 10.0 mi SSW 11.5 mph - N/A   Partly Cloudy
6:15 PM 44.6 °F 39.7 °F 39.2 °F 81% 29.83 in 10.0 mi SSW 9.2 mph - N/A   Mostly Cloudy
6:35 PM 44.6 °F 39.2 °F 39.2 °F 81% 29.84 in 10.0 mi SSW 10.4 mph - N/A   Mostly Cloudy
6:55 PM 44.6 °F 38.8 °F 39.2 °F 81% 29.84 in 10.0 mi SSW 11.5 mph - N/A   Scattered Clouds
7:15 PM 44.6 °F 39.2 °F 39.2 °F 81% 29.84 in 10.0 mi SW 10.4 mph - N/A   Scattered Clouds
7:55 PM 44.6 °F 37.8 °F 39.2 °F 81% 29.88 in 10.0 mi WNW 15.0 mph 20.7 mph N/A   Mostly Cloudy
8:15 PM 46.4 °F 42.4 °F 39.2 °F 76% 29.88 in 10.0 mi West 8.1 mph - N/A   Scattered Clouds
8:35 PM 46.4 °F 42.9 °F 37.4 °F 71% 29.89 in 10.0 mi West 6.9 mph - N/A   Clear
8:55 PM 46.4 °F 42.4 °F 39.2 °F 76% 29.89 in 10.0 mi West 8.1 mph - N/A   Clear
9:35 PM 46.4 °F 41.1 °F 37.4 °F 71% 29.90 in 10.0 mi West 11.5 mph - N/A   Clear
9:55 PM 46.4 °F 41.1 °F 37.4 °F 71% 29.91 in 10.0 mi West 11.5 mph - N/A   Clear
10:35 PM 46.4 °F 39.2 °F 35.6 °F 66% 29.92 in 10.0 mi West 18.4 mph 23.0 mph N/A   Clear
10:55 PM 46.4 °F 39.0 °F 33.8 °F 62% 29.93 in 10.0 mi West 19.6 mph 24.2 mph N/A   Clear
11:15 PM 44.6 °F 37.2 °F 33.8 °F 66% 29.94 in 10.0 mi West 17.3 mph 21.9 mph N/A   Clear
11:35 PM 44.6 °F 36.9 °F 33.8 °F 66% 29.95 in 10.0 mi West 18.4 mph 25.3 mph N/A   Clear
11:55 PM 44.6 °F 36.6 °F 33.8 °F 66% 29.95 in 10.0 mi West 19.6 mph - N/A   Clear